Flag for Germany Weather past 2 weeks in Pfaffenhofen an der Ilm, Bavaria, Germany

Now
59 °F

Refreshingly cool.


Feels Like: 57 °F
Forecast: 49 / 71 °F
Wind: 9 mph from Northwest

Location: Ingolstadt Airport

Current Time: May 30, 2015 at 9:13:34 PM

Latest Report: May 30, 2015 at 8:20 PM


Visibility: 2 mi

Pressure: 30.04 "Hg

Humidity: 59%

Dew point: 45 °F

Location of Pfaffenhofen an der IlmLocation

Historic Weather in Pfaffenhofen an der Ilm — Graph

°F

Pfaffenhofen an der Ilm temperature yesterday

Maximum temperature yesterday: 73 °F (at 3:20 PM)
Minimum temperature yesterday: 48 °F (at 5:20 AM)
Average temperature yesterday: 61 °F

Past Weeks' High & Low Weather Summary

 TemperatureHumidityPressure
High73 °F (May 18, 5:00 PM)100% (May 16, 3:20 AM)30.30 "Hg (May 16, 3:20 AM)
Low41 °F (May 22, 6:20 AM)38% (May 29, 3:20 PM)29.74 "Hg (May 18, 6:20 PM)
Average56 °F74%30.05 "Hg
* Reported May 15 7:20 PM — May 30 7:20 PM, Pfaffenhofen an der Ilm, Weather by CustomWeather, © 2015

Note: Actual official high and low records may vary slightly from our data, if they occured in-between our weather recording intervals... More about our weather records

Advertising

Pfaffenhofen an der Ilm weather history for previous 24 hours

 ConditionsComfort  
Time TempWeatherWind HumidityBarometerVisibility
7:20 PM
Sat, May 30
61 °FRefreshingly cool.12 mph55%30.04 "Hg2 mi
6:20 PM61 °FRefreshingly cool.14 mph55%30.04 "Hg2 mi
5:20 PM61 °FRefreshingly cool.14 mph59%30.01 "Hg2 mi
4:20 PM61 °FCool.13 mph63%30.01 "Hg2 mi
3:20 PM59 °FPartly sunny.8 mph72%30.01 "HgN/A
2:20 PM55 °FPartly sunny.9 mph82%30.01 "HgN/A
1:20 PM54 °FSprinkles. Partly sunny.9 mph88%30.01 "Hg4 mi
12:20 PM61 °FScattered showers. Partly sunny.5 mph72%29.98 "HgN/A
11:20 AM57 °FPartly sunny.7 mph77%29.98 "HgN/A
10:20 AM59 °FCool.14 mph77%29.98 "Hg2 mi
9:20 AM61 °FCool.13 mph72%29.95 "Hg2 mi
8:20 AM59 °FCool.8 mph82%29.92 "Hg2 mi
7:20 AM57 °FCool.3 mph88%29.92 "Hg2 mi
6:20 AM54 °FCool.3 mph94%29.92 "Hg2 mi
5:20 AM52 °FCool.2 mph100%29.92 "Hg0 mi
4:20 AM52 °FCool.2 mph100%29.92 "Hg0 mi
3:20 AM54 °FCool.1 mph100%29.92 "Hg1 mi
2:20 AM54 °FCool.5 mph100%29.92 "Hg1 mi
1:20 AM54 °FCool.2 mph100%29.89 "Hg0 mi
12:20 AM55 °FCool.2 mph100%29.89 "Hg1 mi
11:20 PM
Fri, May 29
57 °FCool.1 mph94%29.89 "Hg1 mi
10:20 PM59 °FCool.6 mph88%29.86 "Hg2 mi
9:20 PM61 °FCool.7 mph88%29.83 "Hg1 mi
Weather by CustomWeather, © 2015

See weather overviewHow to use our weather pages